Location: Unspecified
(40.4667°N, 0.0000°E)
Time: 17:31:02
(UTC+00:00)

ISS - Pass Details

Date: 26 May 2019
Orbit: 408 x 418 km, 51.6° (Epoch: 18 June)

Event Time Altitude Azimuth Distance (km) Brightness Sun altitude
Rises 22:08:30 0° 312° (NW) 2,360 1.2 -23.4°
Maximum altitude 22:13:27 18° 17° (NNE) 1,124 -1.1 -23.8°
Enters shadow 22:14:35 15° 42° (NE) 1,222 -1.2 -23.9°
